| time (UTC) | temp C | wind direction | speed KPH | gust KPH | rain 1hr cm | rain 24hr cm | rain mn cm | humidity % | barometer mb |
| 20260506111522 | 12 | 271 | 3.2 | 11.3 | 0.00 | 0.00 | 0.00 | 76 | 1013.0 |
| 20260506110020 | 13 | 277 | 1.6 | 8.0 | 0.00 | 0.00 | 0.00 | 75 | 1012.9 |
| 20260506104517 | 13 | 283 | 3.2 | 11.3 | 0.00 | 0.00 | 0.00 | 75 | 1012.6 |
| 20260506103016 | 13 | 280 | 3.2 | 14.5 | 0.00 | 0.00 | 0.00 | 75 | 1012.4 |
| 20260506101513 | 13 | 280 | 0.0 | 8.0 | 0.00 | 0.00 | 0.00 | 75 | 1012.1 |
| 20260506100012 | 13 | 265 | 0.0 | 9.7 | 0.00 | 0.00 | 0.00 | 75 | 1011.9 |
| 20260506094509 | 13 | 273 | 3.2 | 9.7 | 0.00 | 0.00 | 0.00 | 74 | 1011.7 |
| 20260506093007 | 13 | 263 | 0.0 | 6.4 | 0.00 | 0.00 | 0.00 | 75 | 1011.5 |
| 20260506091506 | 14 | 271 | 0.0 | 3.2 | 0.00 | 0.00 | 0.00 | 76 | 1011.5 |
| 20260506090005 | 14 | 281 | 1.6 | 6.4 | 0.00 | 0.00 | 0.00 | 76 | 1011.3 |
| 20260506084502 | 14 | 294 | 1.6 | 6.4 | 0.00 | 0.00 | 0.00 | 76 | 1011.2 |
| 20260506083002 | 14 | 261 | 1.6 | 6.4 | 0.00 | 0.00 | 0.00 | 76 | 1011.1 |
| 20260506081603 | 14 | 282 | 1.6 | 8.0 | 0.00 | 0.00 | 0.00 | 76 | 1011.1 |
| 20260506080107 | 14 | 275 | 0.0 | 6.4 | 0.00 | 0.00 | 0.00 | 76 | 1011.0 |
| 20260506073055 | 15 | 262 | 0.0 | 4.8 | 0.00 | 0.00 | 0.00 | 77 | 1010.5 |
| 20260506071602 | 15 | 243 | 0.0 | 8.0 | 0.00 | 0.00 | 0.00 | 77 | 1010.6 |
| 20260506061546 | 15 | 276 | 1.6 | 6.4 | 0.00 | 0.00 | 0.00 | 78 | 1010.6 |
| 20260506044538 | 16 | 277 | 1.6 | 8.0 | 0.00 | 0.00 | 0.00 | 77 | 1010.5 |
| 20260506043035 | 17 | 292 | 0.0 | 14.5 | 0.00 | 0.00 | 0.00 | 77 | 1010.5 |
| 20260506041531 | 17 | 227 | 1.6 | 11.3 | 0.00 | 0.00 | 0.00 | 76 | 1010.4 |
| 20260506040029 | 17 | 286 | 0.0 | 9.7 | 0.00 | 0.00 | 0.00 | 76 | 1010.3 |
| 20260506034530 | 18 | 268 | 1.6 | 11.3 | 0.00 | 0.00 | 0.00 | 76 | 1009.7 |
| 20260506033022 | 18 | 266 | 0.0 | 6.4 | 0.00 | 0.00 | 0.00 | 75 | 1009.5 |
| 20260506031520 | 18 | 265 | 0.0 | 14.5 | 0.00 | 0.00 | 0.00 | 75 | 1009.3 |
| 20260506030031 | 20 | 269 | 3.2 | 9.7 | 0.00 | 0.00 | 0.00 | 74 | 1009.1 |
| 20260506024530 | 20 | 284 | 0.0 | 9.7 | 0.00 | 0.00 | 0.00 | 74 | 1008.9 |
| 20260506023013 | 20 | 287 | 1.6 | 6.4 | 0.00 | 0.00 | 0.00 | 73 | 1008.5 |
| 20260506021508 | 20 | 281 | 0.0 | 4.8 | 0.00 | 0.00 | 0.00 | 72 | 1007.9 |
| 20260506020007 | 20 | 283 | 0.0 | 6.4 | 0.00 | 0.00 | 0.00 | 71 | 1007.7 |
| 20260506014502 | 21 | 278 | 0.0 | 3.2 | 0.00 | 0.00 | 0.00 | 70 | 1007.2 |
| 20260506013002 | 21 | 275 | 0.0 | 8.0 | 0.00 | 0.00 | 0.00 | 68 | 1007.1 |
| 20260506011610 | 21 | 279 | 0.0 | 4.8 | 0.00 | 0.00 | 0.00 | 68 | 1007.1 |
| 20260506010059 | 22 | 262 | 3.2 | 9.7 | 0.00 | 0.00 | 0.00 | 67 | 1006.7 |
| 20260506004556 | 22 | 274 | 0.0 | 8.0 | 0.00 | 0.00 | 0.00 | 65 | 1006.6 |
| 20260506003057 | 23 | 286 | 1.6 | 6.4 | 0.00 | 0.00 | 0.00 | 65 | 1006.1 |
| 20260506001555 | 23 | 264 | 1.6 | 9.7 | 0.00 | 0.00 | 0.00 | 64 | 1005.5 |
| 20260506000055 | 24 | 355 | 0.0 | 6.4 | 0.00 | 0.00 | 0.00 | 64 | 1005.7 |
| 20260505234556 | 25 | 230 | 1.6 | 8.0 | 0.00 | 0.00 | 0.00 | 62 | 1005.5 |
| 20260505233053 | 26 | 360 | 0.0 | 4.8 | 0.00 | 0.00 | 0.00 | 61 | 1005.2 |
| 20260505231553 | 27 | 303 | 0.0 | 8.0 | 0.00 | 0.00 | 0.00 | 60 | 1005.1 |
| 20260505224553 | 28 | 63 | 0.0 | 4.8 | 0.00 | 0.00 | 0.00 | 55 | 1004.5 |
| 20260505223106 | 29 | 290 | 0.0 | 4.8 | 0.00 | 0.00 | 0.00 | 53 | 1004.5 |
| 20260505221551 | 30 | 5 | 0.0 | 6.4 | 0.00 | 0.00 | 0.00 | 47 | 1004.2 |
| 20260505220051 | 30 | 288 | 0.0 | 9.7 | 0.00 | 0.00 | 0.00 | 48 | 1004.0 |
| 20260505214550 | 31 | 281 | 1.6 | 9.7 | 0.00 | 0.00 | 0.00 | 45 | 1004.2 |
| 20260505213057 | 32 | 119 | 3.2 | 11.3 | 0.00 | 0.00 | 0.00 | 47 | 1003.9 |
| 20260505211550 | 32 | 80 | 0.0 | 6.4 | 0.00 | 0.00 | 0.00 | 48 | 1004.2 |
| 20260505210047 | 32 | 109 | 3.2 | 19.3 | 0.00 | 0.00 | 0.00 | 48 | 1004.2 |
| 20260505204545 | 32 | 118 | 4.8 | 17.7 | 0.00 | 0.00 | 0.00 | 50 | 1004.4 |
| 20260505203051 | 32 | 119 | 4.8 | 14.5 | 0.00 | 0.00 | 0.00 | 52 | 1004.5 |
| 20260505201543 | 32 | 114 | 8.0 | 16.1 | 0.00 | 0.00 | 0.00 | 50 | 1004.8 |
| 20260505200039 | 31 | 118 | 1.6 | 14.5 | 0.00 | 0.00 | 0.00 | 56 | 1004.9 |
| 20260505194537 | 30 | 120 | 6.4 | 12.9 | 0.00 | 0.00 | 0.00 | 57 | 1004.9 |
| 20260505193035 | 30 | 131 | 4.8 | 17.7 | 0.00 | 0.00 | 0.00 | 59 | 1005.2 |
| 20260505191532 | 30 | 137 | 4.8 | 14.5 | 0.00 | 0.00 | 0.00 | 61 | 1004.9 |
| 20260505190033 | 29 | 156 | 3.2 | 16.1 | 0.00 | 0.00 | 0.00 | 63 | 1005.0 |
| 20260505184526 | 28 | 145 | 6.4 | 17.7 | 0.00 | 0.00 | 0.00 | 64 | 1005.0 |
| 20260505183025 | 28 | 43 | 6.4 | 19.3 | 0.00 | 0.00 | 0.00 | 65 | 1005.3 |
| 20260505181523 | 28 | 125 | 4.8 | 12.9 | 0.00 | 0.00 | 0.00 | 66 | 1005.1 |
| 20260505180022 | 28 | 134 | 4.8 | 17.7 | 0.00 | 0.00 | 0.00 | 65 | 1005.3 |
| 20260505174521 | 27 | 122 | 4.8 | 16.1 | 0.00 | 0.00 | 0.00 | 66 | 1005.2 |
| 20260505173035 | 27 | 49 | 3.2 | 14.5 | 0.00 | 0.00 | 0.00 | 69 | 1005.1 |
| 20260505171516 | 27 | 135 | 3.2 | 20.9 | 0.00 | 0.00 | 0.00 | 70 | 1005.2 |
| 20260505170022 | 26 | 55 | 4.8 | 16.1 | 0.00 | 0.00 | 0.00 | 71 | 1005.4 |
| 20260505164527 | 26 | 112 | 4.8 | 19.3 | 0.00 | 0.00 | 0.00 | 71 | 1005.3 |
| 20260505163013 | 26 | 133 | 6.4 | 14.5 | 0.00 | 0.00 | 0.00 | 73 | 1005.1 |
| 20260505161506 | 25 | 30 | 3.2 | 20.9 | 0.00 | 0.00 | 0.00 | 75 | 1005.0 |
| 20260505153115 | 24 | 133 | 4.8 | 16.1 | 0.00 | 0.00 | 0.00 | 78 | 1005.1 |
| 20260505151601 | 24 | 126 | 3.2 | 14.5 | 0.00 | 0.00 | 0.00 | 79 | 1004.9 |
| 20260505124550 | 21 | 130 | 3.2 | 12.9 | 0.00 | 0.00 | 0.00 | 88 | 1004.5 |
| 20260505123048 | 21 | 134 | 4.8 | 17.7 | 0.00 | 0.00 | 0.00 | 88 | 1004.4 |
| 20260505121548 | 21 | 138 | 3.2 | 12.9 | 0.00 | 0.00 | 0.00 | 88 | 1004.1 |
| 20260505120047 | 21 | 47 | 3.2 | 14.5 | 0.00 | 0.00 | 0.00 | 88 | 1004.1 |
| 20260505114547 | 21 | 127 | 4.8 | 19.3 | 0.00 | 0.00 | 0.00 | 88 | 1004.2 |
| 20260505113046 | 21 | 55 | 3.2 | 17.7 | 0.00 | 0.00 | 0.00 | 88 | 1004.0 |